Retour au catalogue

STARLINK-37669

ActifCommunicationsVLEO
NORAD 69204·PAYLOAD·🇺🇸 United States

Lancé May 25, 2026 depuis Cape Canaveral Space Force Station

Loading…

Prochains Passages (prochaines 24 heures)

TLE

FraisSource: CelesTrak SupGP

Époque: Sep 15, 2026, 04:32 UTC

1 69204C 26114Y   26258.18937500  .00036265  00000+0  10714-2 0  2585
2 69204  53.1569 138.3835 0001258  76.6227 268.6523 15.34374243    18

Suivez STARLINK-37669 en temps réel avec AllMySat

Download on the App Store